User: anonymous   Login
Location: Lodz
(51.7500°N, 19.4670°E)
Time: 08:40:22
(UTC+01:00)
Language:

ISS - Orbit

View from above orbital plane
View from above orbital plane
View from above satellite
View from above satellite

Ground track
Ground track

The orbit data is extracted from the following two-line orbital elements,

1 25544U 98067A   17059.61904982  .00016717  00000-0  10270-3 0  9042
2 25544  51.6403 219.4988 0006480 244.2150 115.8335 15.54485898  4869
Epoch (UTC): 28 February 2017 14:51:25
Eccentricity: 0.0006480
inclination: 51.6403°
perigee height: 399 km
apogee height: 408 km
right ascension of ascending node: 219.4988°
argument of perigee: 244.2150°
revolutions per day: 15.54485898
mean anomaly at epoch: 115.8335°
orbit number at epoch: 486

The dashed part of the orbit path shows where the satellite is in the earth's shadow,  

DLR